Location: Ravensburg
(47.7866°N, 9.6124°E)
Time: 23:34:40
(UTC+01:00)

METEOR M2 - Visible Passes

Search period start: 14 March 2026 00:00
Search period end: 24 March 2026 00:00
Orbit: 817 x 824 km, 98.5° (Epoch: 14 March)

Date Brightness Start Highest point End Pass type
(mag) Time Alt. Az. Time Alt. Az. Time Alt. Az.
14 Mar ? 04:22:07 10° NNE 04:27:20 48° E 04:32:32 10° S visible
14 Mar ? 06:02:40 10° N 06:07:13 29° WNW 06:11:45 10° WSW visible
15 Mar ? 04:01:42 10° NNE 04:06:34 33° E 04:11:22 10° SSE visible
15 Mar ? 05:41:44 10° N 05:46:44 40° WNW 05:51:43 10° SW visible
16 Mar ? 03:41:30 10° NE 03:45:43 23° E 03:49:53 10° SE visible
16 Mar ? 05:20:55 10° N 05:26:12 58° WNW 05:31:27 10° SSW visible
17 Mar ? 03:21:41 10° NE 03:24:48 15° E 03:27:53 10° ESE visible
17 Mar ? 05:00:10 10° NNE 05:05:35 84° WNW 05:10:59 10° SSW visible
18 Mar ? 04:39:32 10° NNE 04:44:56 68° ESE 04:50:16 10° S visible
19 Mar ? 04:19:01 10° NNE 04:24:12 46° E 04:29:21 10° S visible
20 Mar ? 03:58:38 10° NNE 04:03:24 31° E 04:08:09 10° SSE visible
20 Mar ? 05:38:35 10° N 05:43:37 42° WNW 05:48:39 10° SW visible
21 Mar ? 03:38:28 10° NE 03:42:33 22° E 03:46:36 10° SE visible
21 Mar ? 05:17:45 10° N 05:23:04 61° WNW 05:28:21 10° SSW visible
22 Mar ? 03:18:43 10° NE 03:21:38 14° E 03:24:30 10° ESE visible
22 Mar ? 04:57:02 10° NNE 05:02:28 87° WNW 05:07:51 10° SSW visible
23 Mar ? 04:36:25 10° NNE 04:41:47 65° ESE 04:47:07 10° S visible
